Regional Weather Roundup
Issued by NWS

Home | Current Version | Previous Version | Text Only | Print | Product List | Glossary Off
Versions: 1 2 3 4 5 6 7 8 9 10 11 12 13 14 15 16 17 18 19 20 21 22 23 24 25 26 27 28 29 30 31 32 33 34 35 36 37 38 39 40 41 42 43 44 45 46 47 48 49 50

000
ASUS43 KMKX 281821
RWRWI

WISCONSIN REGIONAL WEATHER ROUNDUP
NATIONAL WEATHER SERVICE MILWAUKEE/SULLIVAN WI
100 PM CDT SUN AUG 28 2016

NOTE: "FAIR" INDICATES FEW OR NO CLOUDS BELOW 12,000 FEET WITH NO
SIGNIFICANT WEATHER AND/OR OBSTRUCTIONS TO VISIBILITY.

WIZ001-002-006>008-014>016-023>028-281900-
NORTHWEST WISCONSIN

CITY           SKY/WX    TMP DP  RH WIND       PRES   REMARKS
SUPERIOR ARPT  CLOUDY    69  63  79 CALM      30.17F
6HR MIN TEMP:  59; 6HR MAX TEMP:  70;

ASHLAND        MOSUNNY   73  63  70 CALM      30.19F
6HR MIN TEMP:  57; 6HR MAX TEMP:  72;

HAYWARD        PTSUNNY   70  62  76 SE8       30.20S
6HR MIN TEMP:  61; 6HR MAX TEMP:  70;

SIREN          CLOUDY    71  64  77 S7        30.18S
6HR MIN TEMP:  60; 6HR MAX TEMP:  71;

CUMBERLAND     CLOUDY    64  63  94 SE7       30.20S
RICE LAKE      CLOUDY    67  64  89 E6        30.21S FOG
6HR MIN TEMP:  59; 6HR MAX TEMP:  67;

CHETEK         NOT AVBL
LADYSMITH      PTSUNNY   73  64  73 SE3       30.22F
6HR MIN TEMP:  61; 6HR MAX TEMP:  73;

EAU CLAIRE     CLOUDY    73  67  81 SE12      30.17F
6HR MIN TEMP:  63; 6HR MAX TEMP:  73;

MENOMONIE      CLOUDY    73  68  84 SE9       30.18F
6HR MIN TEMP:  62; 6HR MAX TEMP:  72;

NEW RICHMOND   CLOUDY    71  68  90 E8        30.18R
6HR MIN TEMP:  59; 6HR MAX TEMP:  71;

OSCEOLA        CLOUDY    72  72  99 SE9       30.19S
6HR MIN TEMP:  60; 6HR MAX TEMP:  72;

$$

WIZ003>005-009-010-017-018-281900-
NORTH CENTRAL WISCONSIN

CITY           SKY/WX    TMP DP  RH WIND       PRES   REMARKS
MANITOWISH WTR NOT AVBL
ARBOR VITAE    MOSUNNY   72  61  69 SW7       30.22S
6HR MIN TEMP:  62; 6HR MAX TEMP:  72;

WOODRUFF       MOSUNNY   72  61  69 SW7       30.22S
6HR MIN TEMP:  62; 6HR MAX TEMP:  72;

RHINELANDER    SUNNY     76  62  62 SW8       30.23S
6HR MIN TEMP:  59; 6HR MAX TEMP:  76;

EAGLE RIVER    SUNNY     71  57  60 CALM      30.22S
6HR MIN TEMP:  61; 6HR MAX TEMP:  73;

LAND O LAKES   MOSUNNY   72  56  58 CALM      30.23S
6HR MIN TEMP:  61; 6HR MAX TEMP:  73;

PHILLIPS       CLOUDY    71  62  73 S6        30.21F
6HR MIN TEMP:  59; 6HR MAX TEMP:  72;

TOMAHAWK       SUNNY     74  60  63 SW3       30.23S
6HR MIN TEMP:  60; 6HR MAX TEMP:  74;

MEDFORD        MOSUNNY   72  65  79 SE5       30.22F
6HR MIN TEMP:  58; 6HR MAX TEMP:  72;

MERRILL        PTSUNNY   74  62  67 S5        30.22F
6HR MIN TEMP:  62; 6HR MAX TEMP:  75; 6HR PCP:  0.01;

$$

WIZ029-030-035-036-043>047-281900-
CENTRAL WISCONSIN

CITY           SKY/WX    TMP DP  RH WIND       PRES   REMARKS
WAUSAU         CLOUDY    71  61  70 S6        30.23R
6HR MIN TEMP:  61; 6HR MAX TEMP:  73;

MOSINEE        PTSUNNY   70  63  78 SW5       30.25S
MARSHFIELD     CLOUDY    75  62  64 VRB3      30.22F
6HR MIN TEMP:  62; 6HR MAX TEMP:  75;

STEVENS POINT  CLOUDY    71  62  71 S3        30.23S
6HR MIN TEMP:  57; 6HR MAX TEMP:  72;

WAUPACA        CLOUDY    80  63  56 SW3       30.22F HX  81
6HR MIN TEMP:  63; 6HR MAX TEMP:  80;

WAUTOMA        CLOUDY    76  65  68 S3        30.23S
6HR MIN TEMP:  65; 6HR MAX TEMP:  77;

WISC RAPIDS    CLOUDY    77  64  64 VRB6      30.23F
6HR MIN TEMP:  63; 6HR MAX TEMP:  77;

CAMP DOUGLAS   PTSUNNY   75  68  78 NE5       30.22F
                                      6HR PCP: TRACE;

$$

WIZ011>013-019>022-031-037>040-048>050-281900-
NORTHEAST WISCONSIN

CITY           SKY/WX    TMP DP  RH WIND       PRES   REMARKS
ANTIGO         MOSUNNY   73  61  66 CALM      30.24S
6HR MIN TEMP:  60; 6HR MAX TEMP:  73;

SHAWANO        PTSUNNY   77  62  60 W6        30.22S
6HR MIN TEMP:  64; 6HR MAX TEMP:  78;

OCONTO         NOT AVBL
STURGEON BAY   PTSUNNY   74  61  63 VRB3      30.23R
6HR MIN TEMP:  64; 6HR MAX TEMP:  76; 6HR PCP:  0.01;

GREEN BAY      PTSUNNY   75  65  70 S6        30.22S
6HR MIN TEMP:  61; 6HR MAX TEMP:  76;

MANITOWOC      PTSUNNY   76  62  62 CALM      30.22F
6HR MIN TEMP:  64; 6HR MAX TEMP:  76;

APPLETON       PTSUNNY   73  61  64 VRB3      30.21F
CLINTONVILLE   SUNNY     75  61  60 SW3       30.22S
OSHKOSH        MOSUNNY   75  63  66 VRB3      30.22S
6HR MIN TEMP:  64; 6HR MAX TEMP:  76;

$$

WIZ032>034-041-042-053>061-281900-
SOUTHWEST WISCONSIN

CITY           SKY/WX    TMP DP  RH WIND       PRES   REMARKS
LA CROSSE      MOSUNNY   76  69  79 SE6       30.19F
6HR MIN TEMP:  67; 6HR MAX TEMP:  76;

SPARTA         MOSUNNY   75  66  75 S7        30.22F
6HR MIN TEMP:  64; 6HR MAX TEMP:  75;

VIROQUA        CLOUDY    74  67  78 E5        30.23S
6HR MIN TEMP:  60; 6HR MAX TEMP:  75; 6HR PCP:  0.01;

BOSCOBEL       MOSUNNY   81  71  71 VRB6      30.19F HX  85
6HR MIN TEMP:  63; 6HR MAX TEMP:  81;

PRAIRIE DU CHI MOSUNNY   80  67  64 CALM      30.18S HX  82
6HR MIN TEMP:  62; 6HR MAX TEMP:  81; 6HR PCP:  0.01;

PLATTEVILLE    MOSUNNY   81  72  74 SE6       30.20F HX  85
6HR MIN TEMP:  63; 6HR MAX TEMP:  81;

$$

WIZ056-057-062-063-064-067-068-281900-
SOUTH CENTRAL WISCONSIN

CITY           SKY/WX    TMP DP  RH WIND       PRES   REMARKS
REEDSBURG      NOT AVBL
BARABOO/DELLS  CLOUDY    73  65  77 SE5       30.24R
6HR MIN TEMP:  62; 6HR MAX TEMP:  73;

LONE ROCK      CLOUDY    73  68  84 E8        30.22S
6HR MIN TEMP:  63; 6HR MAX TEMP:  74;

MINERAL POINT  PTSUNNY   81  70  69 CALM      30.21S HX  84
MADISON        PTSUNNY   74  67  78 VRB3      30.22F
6HR MIN TEMP:  63; 6HR MAX TEMP:  72;

MIDDLETON      CLOUDY    76  69  77 E8        30.23F
6HR MIN TEMP:  60; 6HR MAX TEMP:  76;

WATERTOWN      PTSUNNY   73  68  84 CALM      30.23S
6HR MIN TEMP:  61; 6HR MAX TEMP:  73;

MONROE         MOSUNNY   81  68  65 CALM      30.20F HX  83
JANESVILLE     PTSUNNY   81  68  65 MISG      30.20F HX  83
$$

WIZ051-052-058>065-066-070>072-281900-
SOUTHEAST WISCONSIN

CITY           SKY/WX    TMP DP  RH WIND       PRES   REMARKS
MILWAUKEE      PTSUNNY   73  66  78 E7        30.22F
6HR MIN TEMP:  66; 6HR MAX TEMP:  75;

WAUKESHA       SUNNY     75  66  73 MISG      30.23F
MILWAUKEE/TIMM SUNNY     75  63  64 CALM      30.23F
RACINE         CLOUDY    71  65  81 NE6       30.24S
6HR MIN TEMP:  65; 6HR MAX TEMP:  74;

BURLINGTON     MOSUNNY   78  67  68 E8        30.21S HX  80
6HR MIN TEMP:  63; 6HR MAX TEMP:  79;

KENOSHA        MOSUNNY   75  67  76 E9        30.23S
6HR MIN TEMP:  67; 6HR MAX TEMP:  77;

FOND DU LAC    MOSUNNY   76  65  68 CALM      30.22F
6HR MIN TEMP:  64; 6HR MAX TEMP:  77;

SHEBOYGAN      CLOUDY    78  64  61 N3        30.22S HX  80
6HR MIN TEMP:  65; 6HR MAX TEMP:  78;

WEST BEND      MOSUNNY   75  64  69 SW3       30.23S
JUNEAU         CLOUDY    71  65  82 CALM      30.24F
6HR MIN TEMP:  63; 6HR MAX TEMP:  71;

$$

LSZ147-162-281900-
LAKE SUPERIOR

STATION/POSITION TIME  TEMP    WIND        PRES    WAVE
                       AIR SEA DIR/SP/G            HT/PER
                 (UTC) (F)     (DEG/KT/KT) (MB)    (FT/S)
W MID LAKE BUOY  1750   66 68  200/ 10/ 10 1022.0R   1
DEVILS ISLAND    1800   64     230/  3/  4 1022.4R
PORT WING        1740   65     360/  4/  6 1022.4S
SAXON HARBOR     1740   67      10/  3/  4 1022.4R
$$

LMZ867-665-643>646-281900-
LAKE MICHIGAN

STATION/POSITION TIME  TEMP    WIND        PRES    WAVE
                       AIR SEA DIR/SP/G            HT/PER
                 (UTC) (F)     (DEG/KT/KT) (MB)    (FT/S)
CHAMBERS ISLAND  1700   76      10/  3/  5 1022.7S
N MID LAKE BUOY  1750   69 71  240/  6/  8 1022.5R   1/ 3
NORTHPORT PIER   170C1F1C2F2C3F3C4F4C5F5C6F6C7F7C8M1C9M2Ca!



USA.gov is the U.S. government's official web portal to all federal, state and local government web resources and services.